Time,TemperatureF,DewpointF,PressureIn,WindDirection,WindDirectionDegrees,WindSpeedMPH,WindSpeedGustMPH,Humidity,HourlyPrecipIn,Conditions,Clouds,dailyrainin,SoftwareType,DateUTC
2013-03-07 00:08:00,47.3,40.0,29.89,NNE,13,0.0,0.0,75,0.00,,,0.00,weatherlink.com 1.10,2013-03-07 05:08:00,
2013-03-07 00:23:00,46.9,40.0,29.89,NNE,22,0.0,0.0,76,0.00,,,0.00,weatherlink.com 1.10,2013-03-07 05:23:00,
2013-03-07 00:38:00,46.4,38.0,29.89,NE,34,0.0,4.0,73,0.00,,,0.00,weatherlink.com 1.10,2013-03-07 05:38:00,
2013-03-07 00:53:00,46.4,38.0,29.89,North,360,0.0,2.0,72,0.00,,,0.00,weatherlink.com 1.10,2013-03-07 05:53:00,
2013-03-07 01:09:00,46.3,37.0,29.89,NNE,33,0.0,1.0,71,0.00,,,0.00,weatherlink.com 1.10,2013-03-07 06:09:00,
2013-03-07 01:24:00,46.0,37.0,29.89,NNE,24,1.0,3.0,70,0.00,,,0.00,weatherlink.com 1.10,2013-03-07 06:24:00,
2013-03-07 01:39:00,45.5,36.0,29.90,NNE,26,0.0,2.0,70,0.00,,,0.00,weatherlink.com 1.10,2013-03-07 06:39:00,
2013-03-07 01:54:00,45.5,35.0,29.89,NE,38,2.0,4.0,68,0.00,,,0.00,weatherlink.com 1.10,2013-03-07 06:54:00,
2013-03-07 02:09:00,45.3,35.0,29.89,NNE,28,0.0,2.0,68,0.00,,,0.00,weatherlink.com 1.10,2013-03-07 07:09:00,
2013-03-07 02:24:00,44.6,35.0,29.89,NNE,19,1.0,2.0,69,0.00,,,0.00,weatherlink.com 1.10,2013-03-07 07:24:00,
2013-03-07 02:39:00,44.2,35.0,29.89,NNE,26,1.0,3.0,70,0.00,,,0.00,weatherlink.com 1.10,2013-03-07 07:39:00,
2013-03-07 02:54:00,43.8,35.0,29.88,NNE,27,0.0,3.0,70,0.00,,,0.00,weatherlink.com 1.10,2013-03-07 07:54:00,
2013-03-07 03:09:00,43.6,34.0,29.88,NNE,22,0.0,3.0,70,0.00,,,0.00,weatherlink.com 1.10,2013-03-07 08:09:00,
2013-03-07 03:24:00,43.6,34.0,29.88,NNE,33,0.0,5.0,70,0.00,,,0.00,weatherlink.com 1.10,2013-03-07 08:24:00,
2013-03-07 03:39:00,43.8,34.0,29.88,NE,36,3.0,6.0,69,0.00,,,0.00,weatherlink.com 1.10,2013-03-07 08:39:00,
2013-03-07 03:54:00,44.4,34.0,29.88,NNE,20,4.0,5.0,67,0.00,,,0.00,weatherlink.com 1.10,2013-03-07 08:54:00,
2013-03-07 04:09:00,44.8,34.0,29.88,NNE,17,2.0,6.0,66,0.00,,,0.00,weatherlink.com 1.10,2013-03-07 09:09:00,
2013-03-07 04:24:00,44.9,34.0,29.88,NNE,19,3.0,8.0,66,0.00,,,0.00,weatherlink.com 1.10,2013-03-07 09:24:00,
2013-03-07 04:39:00,44.6,34.0,29.88,NNE,26,4.0,6.0,66,0.00,,,0.00,weatherlink.com 1.10,2013-03-07 09:39:00,
2013-03-07 04:54:00,44.5,34.0,29.88,North,5,7.0,7.0,66,0.00,,,0.00,weatherlink.com 1.10,2013-03-07 09:54:00,
2013-03-07 05:09:00,44.4,34.0,29.88,NNE,23,4.0,7.0,66,0.00,,,0.00,weatherlink.com 1.10,2013-03-07 10:09:00,
2013-03-07 05:24:00,43.9,34.0,29.88,North,360,3.0,7.0,67,0.00,,,0.00,weatherlink.com 1.10,2013-03-07 10:24:00,
2013-03-07 05:39:00,43.4,33.0,29.88,NNE,28,1.0,5.0,68,0.00,,,0.00,weatherlink.com 1.10,2013-03-07 10:39:00,
2013-03-07 05:54:00,43.1,34.0,29.88,NE,36,3.0,6.0,69,0.00,,,0.00,weatherlink.com 1.10,2013-03-07 10:54:00,
2013-03-07 06:24:00,42.4,34.0,29.92,NNE,16,0.0,6.0,71,0.00,,,0.00,weatherlink.com 1.10,2013-03-07 11:24:00,
2013-03-07 06:39:00,41.9,33.0,29.92,NNE,21,0.0,3.0,72,0.00,,,0.00,weatherlink.com 1.10,2013-03-07 11:39:00,
2013-03-07 07:09:00,41.4,33.0,29.93,NNE,31,3.0,5.0,73,0.00,,,0.00,weatherlink.com 1.10,2013-03-07 12:09:00,
2013-03-07 07:24:00,41.6,34.0,29.93,NE,38,5.0,7.0,74,0.00,,,0.00,weatherlink.com 1.10,2013-03-07 12:24:00,
2013-03-07 07:39:00,42.9,34.0,29.94,NNE,29,3.0,9.0,72,0.00,,,0.00,weatherlink.com 1.10,2013-03-07 12:39:00,
2013-03-07 07:54:00,44.5,35.0,29.94,NNE,12,3.0,7.0,69,0.00,,,0.00,weatherlink.com 1.10,2013-03-07 12:54:00,
2013-03-07 08:09:00,45.4,35.0,29.94,NNW,342,6.0,12.0,67,0.00,,,0.00,weatherlink.com 1.10,2013-03-07 13:09:00,
2013-03-07 08:42:00,46.5,34.0,29.95,ENE,64,9.0,15.0,62,0.00,,,0.00,weatherlink.com 1.10,2013-03-07 13:42:00,
2013-03-07 08:54:00,47.3,34.0,29.95,ENE,61,8.0,14.0,61,0.00,,,0.00,weatherlink.com 1.10,2013-03-07 13:54:00,
2013-03-07 09:09:00,48.3,35.0,29.95,NE,44,7.0,15.0,60,0.00,,,0.00,weatherlink.com 1.10,2013-03-07 14:09:00,
2013-03-07 09:24:00,49.2,35.0,29.95,NE,44,6.0,14.0,58,0.00,,,0.00,weatherlink.com 1.10,2013-03-07 14:24:00,
2013-03-07 09:40:00,51.0,36.0,29.96,NE,37,4.0,12.0,56,0.00,,,0.00,weatherlink.com 1.10,2013-03-07 14:40:00,
2013-03-07 09:55:00,51.3,35.0,29.96,NNE,19,9.0,11.0,55,0.00,,,0.00,weatherlink.com 1.10,2013-03-07 14:55:00,
2013-03-07 10:10:00,52.0,35.0,29.96,NE,52,7.0,12.0,52,0.00,,,0.00,weatherlink.com 1.10,2013-03-07 15:10:00,
2013-03-07 10:25:00,52.8,35.0,29.96,NE,50,3.0,10.0,51,0.00,,,0.00,weatherlink.com 1.10,2013-03-07 15:25:00,
2013-03-07 10:40:00,55.0,36.0,29.96,NE,51,4.0,8.0,49,0.00,,,0.00,weatherlink.com 1.10,2013-03-07 15:40:00,
2013-03-07 10:55:00,55.4,35.0,29.96,ENE,66,2.0,9.0,47,0.00,,,0.00,weatherlink.com 1.10,2013-03-07 15:55:00,
2013-03-07 11:10:00,55.9,36.0,29.96,NE,40,4.0,10.0,47,0.00,,,0.00,weatherlink.com 1.10,2013-03-07 16:10:00,
2013-03-07 11:25:00,57.2,36.0,29.96,NE,41,3.0,8.0,46,0.00,,,0.00,weatherlink.com 1.10,2013-03-07 16:25:00,
2013-03-07 11:40:00,58.5,37.0,29.96,WNW,286,1.0,8.0,45,0.00,,,0.00,weatherlink.com 1.10,2013-03-07 16:40:00,
2013-03-07 11:55:00,58.9,37.0,29.96,ESE,117,4.0,9.0,44,0.00,,,0.00,weatherlink.com 1.10,2013-03-07 16:55:00,
2013-03-07 12:10:00,59.8,37.0,29.96,NNE,24,1.0,8.0,43,0.00,,,0.00,weatherlink.com 1.10,2013-03-07 17:10:00,
2013-03-07 12:25:00,60.9,37.0,29.96,NW,317,5.0,8.0,41,0.00,,,0.00,weatherlink.com 1.10,2013-03-07 17:25:00,
2013-03-07 12:40:00,61.7,37.0,29.96,NW,318,3.0,8.0,40,0.00,,,0.00,weatherlink.com 1.10,2013-03-07 17:40:00,
2013-03-07 12:55:00,62.5,38.0,29.96,NNW,346,1.0,8.0,40,0.00,,,0.00,weatherlink.com 1.10,2013-03-07 17:55:00,
2013-03-07 13:10:00,63.4,38.0,29.96,ENE,58,1.0,7.0,39,0.00,,,0.00,weatherlink.com 1.10,2013-03-07 18:10:00,
2013-03-07 13:25:00,64.0,37.0,29.92,ENE,61,0.0,7.0,37,0.00,,,0.00,weatherlink.com 1.10,2013-03-07 18:25:00,
2013-03-07 13:40:00,64.8,38.0,29.91,NNE,28,0.0,8.0,37,0.00,,,0.00,weatherlink.com 1.10,2013-03-07 18:40:00,
2013-03-07 13:55:00,66.1,40.0,29.91,SSW,197,4.0,8.0,38,0.00,,,0.00,weatherlink.com 1.10,2013-03-07 18:55:00,
2013-03-07 14:10:00,66.6,41.0,29.91,SSW,209,3.0,5.0,39,0.00,,,0.00,weatherlink.com 1.10,2013-03-07 19:10:00,
2013-03-07 14:25:00,66.5,41.0,29.91,WSW,250,1.0,6.0,40,0.00,,,0.00,weatherlink.com 1.10,2013-03-07 19:25:00,
2013-03-07 14:40:00,66.3,42.0,29.91,SSW,200,4.0,6.0,42,0.00,,,0.00,weatherlink.com 1.10,2013-03-07 19:40:00,
2013-03-07 14:55:00,66.3,43.0,29.91,SSW,210,1.0,6.0,43,0.00,,,0.00,weatherlink.com 1.10,2013-03-07 19:55:00,
2013-03-07 15:10:00,66.1,42.0,29.91,SSW,208,3.0,9.0,42,0.00,,,0.00,weatherlink.com 1.10,2013-03-07 20:10:00,
2013-03-07 15:25:00,66.2,43.0,29.91,SSW,194,0.0,8.0,44,0.00,,,0.00,weatherlink.com 1.10,2013-03-07 20:25:00,
2013-03-07 15:40:00,66.3,44.0,29.91,West,271,0.0,6.0,44,0.00,,,0.00,weatherlink.com 1.10,2013-03-07 20:40:00,
2013-03-07 15:55:00,65.4,42.0,29.91,West,266,1.0,8.0,43,0.00,,,0.00,weatherlink.com 1.10,2013-03-07 20:55:00,
2013-03-07 16:10:00,65.6,42.0,29.91,West,271,1.0,5.0,43,0.00,,,0.00,weatherlink.com 1.10,2013-03-07 21:10:00,
2013-03-07 16:25:00,64.2,42.0,29.91,SW,220,5.0,7.0,44,0.00,,,0.00,weatherlink.com 1.10,2013-03-07 21:25:00,
2013-03-07 16:55:00,62.9,43.0,29.91,SSW,212,1.0,6.0,48,0.00,,,0.00,weatherlink.com 1.10,2013-03-07 21:55:00,
2013-03-07 17:10:00,62.1,44.0,29.91,SW,218,0.0,8.0,51,0.00,,,0.00,weatherlink.com 1.10,2013-03-07 22:10:00,
2013-03-07 17:25:00,61.7,44.0,29.91,WSW,240,0.0,6.0,52,0.00,,,0.00,weatherlink.com 1.10,2013-03-07 22:25:00,
2013-03-07 17:40:00,61.0,44.0,29.91,West,266,1.0,5.0,54,0.00,,,0.00,weatherlink.com 1.10,2013-03-07 22:40:00,
2013-03-07 17:55:00,58.9,44.0,29.91,SSW,207,0.0,5.0,58,0.00,,,0.00,weatherlink.com 1.10,2013-03-07 22:55:00,
2013-03-07 18:10:00,57.7,44.0,29.91,SSW,207,0.0,3.0,61,0.00,,,0.00,weatherlink.com 1.10,2013-03-07 23:10:00,
2013-03-07 18:25:00,56.8,44.0,29.91,NW,316,0.0,6.0,63,0.00,,,0.00,weatherlink.com 1.10,2013-03-07 23:25:00,
2013-03-07 18:40:00,55.9,44.0,29.91,SSE,161,0.0,2.0,65,0.00,,,0.00,weatherlink.com 1.10,2013-03-07 23:40:00,
2013-03-07 18:55:00,54.9,44.0,29.91,NW,312,1.0,2.0,66,0.00,,,0.00,weatherlink.com 1.10,2013-03-07 23:55:00,
2013-03-07 19:10:00,54.4,42.0,29.91,NNW,328,0.0,2.0,63,0.00,,,0.00,weatherlink.com 1.10,2013-03-08 00:10:00,
2013-03-07 19:25:00,53.5,42.0,29.91,North,10,1.0,2.0,65,0.00,,,0.00,weatherlink.com 1.10,2013-03-08 00:25:00,
2013-03-07 19:40:00,52.4,42.0,29.91,North,5,1.0,4.0,68,0.00,,,0.00,weatherlink.com 1.10,2013-03-08 00:40:00,
2013-03-07 19:55:00,51.9,42.0,29.91,North,350,1.0,4.0,69,0.00,,,0.00,weatherlink.com 1.10,2013-03-08 00:55:00,
2013-03-07 20:10:00,51.5,42.0,29.91,NNE,25,2.0,7.0,71,0.00,,,0.00,weatherlink.com 1.10,2013-03-08 01:10:00,
2013-03-07 20:25:00,51.4,43.0,29.91,North,360,1.0,5.0,73,0.00,,,0.00,weatherlink.com 1.10,2013-03-08 01:25:00,
2013-03-07 20:40:00,51.1,43.0,29.91,North,355,1.0,4.0,74,0.00,,,0.00,weatherlink.com 1.10,2013-03-08 01:40:00,
2013-03-07 20:55:00,50.4,43.0,29.91,North,355,0.0,1.0,76,0.00,,,0.00,weatherlink.com 1.10,2013-03-08 01:55:00,
2013-03-07 21:11:00,50.0,43.0,29.91,NNW,342,0.0,2.0,77,0.00,,,0.00,weatherlink.com 1.10,2013-03-08 02:11:00,
2013-03-07 21:26:00,49.1,43.0,29.91,NNW,342,0.0,0.0,79,0.00,,,0.00,weatherlink.com 1.10,2013-03-08 02:26:00,
2013-03-07 21:41:00,48.2,43.0,29.91,NNW,342,0.0,0.0,81,0.00,,,0.00,weatherlink.com 1.10,2013-03-08 02:41:00,
2013-03-07 21:56:00,47.6,42.0,29.91,NNW,343,0.0,0.0,82,0.00,,,0.00,weatherlink.com 1.10,2013-03-08 02:56:00,
2013-03-07 22:11:00,47.3,42.0,29.91,NNW,343,0.0,0.0,83,0.00,,,0.00,weatherlink.com 1.10,2013-03-08 03:11:00,
2013-03-07 22:26:00,46.8,42.0,29.91,NNW,343,0.0,0.0,84,0.00,,,0.00,weatherlink.com 1.10,2013-03-08 03:26:00,
2013-03-07 22:41:00,45.8,42.0,29.91,NNW,343,0.0,0.0,85,0.00,,,0.00,weatherlink.com 1.10,2013-03-08 03:41:00,
2013-03-07 22:56:00,45.2,41.0,29.91,NNW,343,0.0,0.0,86,0.00,,,0.00,weatherlink.com 1.10,2013-03-08 03:56:00,
2013-03-07 23:11:00,44.6,41.0,29.91,NNW,343,0.0,0.0,88,0.00,,,0.00,weatherlink.com 1.10,2013-03-08 04:11:00,
2013-03-07 23:26:00,44.5,41.0,29.91,NNW,343,0.0,0.0,88,0.00,,,0.00,weatherlink.com 1.10,2013-03-08 04:26:00,
2013-03-07 23:41:00,43.6,40.0,29.91,NNW,343,0.0,0.0,88,0.00,,,0.00,weatherlink.com 1.10,2013-03-08 04:41:00,
2013-03-07 23:56:00,43.2,40.0,29.91,NNW,343,0.0,0.0,89,0.00,,,0.00,weatherlink.com 1.10,2013-03-08 04:56:00,